Location: Briis
(48.6240°N, 2.1211°E)
Time: 06:32:35
(UTC+00:00)

Meteor 2-9 - Pass Details

Date: 25 September 2020
Orbit: 801 x 880 km, 81.3° (Epoch: 19 October)

Event Time Altitude Azimuth Distance (km) Brightness Sun altitude
Rises 02:49:36 0° 347° (NNW) 3,383 8.1 -27.8°
Reaches altitude 10° 02:52:02 10° 347° (NNW) 2,434 7.3 -27.5°
Maximum altitude 02:57:32 86° 260° (W) 822 4.5 -26.8°
Enters shadow 02:57:41 84° 211° (SSW) 823 4.4 -26.7°
